This is the latest recevied weather packets stored in our database for station/object IZ1UQG-1. If no packets are shown the sender has not sent any weather packets the latest 10 day(s).
| Time | Temp. | Humidity | Pressure | Rain* | Wind** | Luminosity | Snow |
|---|---|---|---|---|---|---|---|
| 1777207754 | 31.11° C | 29% | 1014.8 hPa | 44.96 mm | - | - | - |
| 1777207454 | 30.56° C | 31% | 1014.7 hPa | 40.89 mm | - | - | - |
| 1777207154 | 30.56° C | 32% | 1014.8 hPa | 37.59 mm | - | - | - |
| 1777206854 | 30.56° C | 35% | 1014.7 hPa | 38.61 mm | - | - | - |
| 1777206554 | 30° C | 35% | 1014.9 hPa | 37.08 mm | - | - | - |
| 1777206254 | 30° C | 34% | 1014.9 hPa | 32.51 mm | - | - | - |
| 1777205954 | 30.56° C | 33% | 1014.8 hPa | 25.15 mm | - | - | - |
| 1777205654 | 30.56° C | 34% | 1014.9 hPa | 30.48 mm | - | - | - |
| 1777205354 | 30° C | 33% | 1014.7 hPa | 31.5 mm | - | - | - |
| 1777205054 | 30.56° C | 33% | 1014.7 hPa | 33.53 mm | - | - | - |
| 1777204755 | 30.56° C | 32% | 1014.8 hPa | 26.92 mm | - | - | - |
| 1777204454 | 30.56° C | 31% | 1014.9 hPa | 29.46 mm | - | - | - |
| 1777204154 | 30.56° C | 30% | 1014.8 hPa | 37.08 mm | - | - | - |
| 1777203854 | 30.56° C | 28% | 1014.9 hPa | 38.61 mm | - | - | - |
| 1777203554 | 31.11° C | 29% | 1015 hPa | 35.56 mm | - | - | - |
| 1777203254 | 31.11° C | 31% | 1014.9 hPa | 42.93 mm | - | - | - |
| 1777202954 | 31.11° C | 31% | 1015.1 hPa | 45.97 mm | - | - | - |
| 1777202654 | 31.11° C | 32% | 1015 hPa | 54.86 mm | - | - | - |
| 1777202354 | 31.11° C | 32% | 1015.1 hPa | 51.05 mm | - | - | - |
| 1777202054 | 31.11° C | 32% | 1015.2 hPa | 56.39 mm | - | - | - |
| 1777201754 | 31.11° C | 32% | 1015.1 hPa | 57.4 mm | - | - | - |
| 1777201454 | 31.11° C | 32% | 1015.3 hPa | 63.5 mm | - | - | - |
| 1777201154 | 31.11° C | 32% | 1015.3 hPa | 60.45 mm | - | - | - |
| 1777200854 | 30.56° C | 32% | 1015.4 hPa | 67.82 mm | - | - | - |
| 1777200554 | 30.56° C | 32% | 1015.5 hPa | 60.45 mm | - | - | - |
* Rain latest hour (hover to see other rain measurements)
** Current wind speed in m/s (hover to see current wind gust speed)